Location: Appenweiler
(47.7282°N, 9.5317°E)
Time: 16:44:30
(UTC+00:00)

Daily predictions for brighter satellites

Satellite Brightness Start Highest point End
(mag) Time Altitude Azimuth Time Altitude Azimuth Time Altitude Azimuth
USA 234 4.1 19:54:56 10° E 20:01:12 50° NNE 20:07:29 10° NW
Meteor 2-10 Rocket 3.5 20:02:18 10° N 20:07:24 70° ENE 20:12:23 10° SSE
Okean 1 Rocket 3.3 20:03:31 10° NNW 20:08:01 76° W 20:12:27 10° S
Cosmos 407 Rocket 3.7 20:04:05 10° NNW 20:09:15 59° ENE 20:14:20 10° SE
APEX 4.1 20:04:06 10° SSW 20:10:06 76° ESE 20:15:07 10° NNE
SL-14 R/B 3.4 20:06:54 10° SSW 20:10:45 77° W 20:14:40 10° N
S3M 4.0 20:05:06 10° S 20:11:17 72° E 20:17:25 10° NNE
Cosmos 1455 Rocket 3.6 20:08:58 10° N 20:13:11 45° ENE 20:17:19 10° SSE
USA 245 3.9 20:08:51 10° SSE 20:14:00 67° ENE 20:18:10 10° N
SL-16 R/B 4.3 20:09:05 10° WSW 20:14:09 32° NW 20:19:17 10° NNE
Cosmos 1626 4.4 20:11:31 10° SW 20:14:37 26° WNW 20:17:45 10° NNW
MetOp-B 4.2 20:11:19 10° SSE 20:16:41 85° WSW 20:22:05 10° NNW
SPOT 5 3.2 20:13:08 10° SE 20:17:28 46° ENE 20:21:40 10° N
Cosmos 2056 Rocket 4.4 20:13:25 10° SSE 20:18:02 30° E 20:22:43 10° NE
Meteor 2-5 Rocket 4.2 20:13:07 10° SSE 20:18:17 43° E 20:23:29 10° NNE
SPOT 1/Viking Rocket 4.1 20:16:12 10° S 20:21:14 57° W 20:26:20 10° NNW
Cosmos 1271 Rocket 4.2 20:19:39 10° NNE 20:22:59 25° ENE 20:26:12 10° SE
Cosmos 1300 3.0 20:20:53 10° NNW 20:24:39 65° W 20:28:24 10° S
Cosmos 1025 Rocket 3.5 20:20:57 10° SSE 20:24:57 41° E 20:29:00 10° NNE
ERS-1 Rocket 3.3 20:24:38 10° SSE 20:29:33 57° ENE 20:34:30 10° N
Cosmos 1140 Rocket 3.5 20:27:39 10° NNW 20:32:54 86° WSW 20:37:57 11° SSE
Cosmos 1953 3.9 20:31:49 10° NNW 20:35:21 32° W 20:38:52 10° SSW
Cosmos 1943 3.7 20:31:53 10° SW 20:37:31 66° WNW 20:43:10 10° NNE
Cosmos 1745 Rocket 4.4 20:33:25 10° NNW 20:39:27 62° W 20:45:30 10° S
CZ-2C R/B 4.1 20:37:00 10° NNE 20:41:28 46° E 20:45:46 10° S
Cosmos 1603 4.1 20:35:48 10° SW 20:41:28 69° WNW 20:47:14 10° NNE
Lacrosse 5 2.8 20:37:55 10° NW 20:42:50 46° NNE 20:47:45 10° E
Cosmos 1975 Rocket 3.1 20:41:09 10° S 20:45:37 83° E 20:50:05 10° N
H-2A R/B 4.2 20:43:23 10° N 20:47:08 29° WNW 20:50:54 10° SW
Helios 1A Rocket 2.9 20:43:49 12° SSE 20:47:30 89° WSW 20:51:37 10° NNW
Ariane Rocket 4.2 20:44:11 10° SSW 20:48:55 38° W 20:53:41 10° NNW
CARTOSAT-1 4.5 20:45:23 10° S 20:49:30 45° W 20:53:41 10° NNW
Cosmos 1954 Rocket 4.3 20:44:45 10° NNW 20:50:00 59° ENE 20:54:15 15° SE
Resurs 01 Rocket 3.8 20:50:07 10° SW 20:53:33 22° W 20:57:02 10° NW
Lacrosse 4 Rocket 3.4 20:54:01 10° WSW 20:57:44 31° NW 21:01:26 10° NNE
Tiangong 2.3 20:56:41 10° SW 20:59:20 24° S 21:00:12 21° SSE
Cosmos 2228 4.4 20:58:14 10° NNE 21:01:48 26° ENE 21:04:23 15° ESE
Cosmos 1544 Rocket 3.5 21:00:04 10° N 21:04:25 79° E 21:07:38 18° SSE
Cosmos 1703 4.5 21:03:35 18° SE 21:05:23 26° E 21:08:38 10° NNE
FALCON 9 DEB 3.1 21:03:26 10° WSW 21:06:42 79° NNW 21:09:59 10° ENE
Terra 1.8 21:02:52 15° SSE 21:06:46 86° WSW 21:11:34 10° NNW
SL-8 R/B 3.7 21:03:59 10° W 21:08:49 86° N 21:13:40 10° E
USA 267 3.2 21:02:46 10° NE 21:09:19 74° SE 21:15:52 10° SW
Cosmos 1980 Rocket 4.4 21:07:15 10° N 21:10:56 17° NE 21:14:36 10° ENE
Cosmos 1455 2.1 21:08:23 10° N 21:12:11 87° E 21:14:42 20° S
Meteor 1-24 Rocket 3.7 21:06:58 10° SSW 21:12:15 81° W 21:17:41 10° N
Cosmos 2369 Rocket 4.5 21:10:06 10° WNW 21:13:16 15° W 21:16:26 10° SW
Cosmos 2315 Rocket 4.3 21:07:06 10° SSW 21:13:25 71° W 21:19:46 10° N
Cosmos 1697 Rocket 4.2 21:11:11 10° N 21:16:00 28° NE 21:20:46 10° ESE
NOSS 2-1 (C) 4.2 21:13:10 10° NW 21:17:31 66° NE 21:22:11 17° SE
Cosmos 1371 Rocket 4.1 21:13:05 10° SSW 21:18:19 83° WNW 21:23:38 10° NNE
Cosmos 1452 Rocket 4.3 21:17:03 20° SSE 21:19:56 33° E 21:24:36 10° NE
RESURS DK-1 4.2 21:16:39 10° N 21:20:03 24° NE 21:23:13 11° E
Spot 2 Rocket 4.3 21:15:27 12° S 21:20:03 47° W 21:24:59 10° NNW
ARIANE 5 R/B 2.8 21:23:37 19° S 21:26:46 72° WSW 21:31:15 10° NNW
NOSS 2-1 (D) 4.0 21:23:28 10° NW 21:27:53 77° NE 21:32:17 19° SE
Lacrosse 5 rocket 1.1 21:25:35 10° NW 21:29:28 83° SW 21:31:47 25° SE
ASTEX 1 4.2 21:24:54 10° NNE 21:29:31 36° E 21:32:06 22° SE
Cosmos 2084 3.2 21:26:52 12° SSW 21:30:21 57° SE 21:34:10 10° NE
Cosmos 2074 Rocket 4.0 21:31:17 10° N 21:37:37 88° E 21:42:02 21° S
ATLAS 2AS CENTAUR R/B 2.7 21:33:09 10° NW 21:40:18 79° SW 21:44:51 22° SSE
Cosmos 1656 3.7 21:38:00 10° NNW 21:43:29 74° ENE 21:46:54 24° SE
GP-B 4.1 21:39:44 10° NNE 21:43:47 33° E 21:45:39 24° SE
USA 234 3.2 21:38:52 18° SE 21:44:00 80° SW 21:50:36 10° NW
Cosmos 1833 Rocket 3.5 21:44:37 24° SSE 21:46:58 33° ESE 21:51:55 10° NE
Cosmos 2154 Rocket 4.0 21:50:40 10° N 21:56:57 88° E 22:00:52 24° S
Nadezhda 1 Rocket 3.9 21:54:38 22° S 21:58:41 76° E 22:04:46 10° NNE
Cosmos 1271 Rocket 4.3 21:55:23 10° NNW 21:58:53 30° W 22:01:16 17° SW
Cosmos 2082 Rocket 3.8 21:59:43 17° ESE 22:01:13 19° E 22:05:04 10° ENE
Cosmos 1741 Rocket 4.0 21:58:50 10° NNW 22:04:11 85° ENE 22:07:02 28° SSE
Cosmos 1610 Rocket 4.5 21:58:40 10° N 22:04:53 90° ENE 22:08:40 26° S
Cosmos 2344 4.4 22:00:29 10° NW 22:09:09 72° NE 22:20:43 11° SE
Cosmos 968 Rocket 4.2 22:20:28 10° NNW 22:25:27 45° ENE 22:28:30 22° ESE
Cosmos 1606 Rocket 3.6 22:21:25 10° NNW 22:25:44 69° W 22:27:26 35° S
Lacrosse 5 2.1 22:20:59 10° WNW 22:25:58 54° SW 22:27:56 34° SSE
H-2A R/B 3.9 22:22:01 10° NNE 22:26:05 47° E 22:27:16 36° SE
COSMOS 2406 3.8 22:25:00 29° SSE 22:27:13 41° ESE 22:32:35 10° NE
Meteor 1-11 4.3 22:30:33 31° SSE 22:33:13 62° E 22:38:45 10° NNE
SL-8 Rocket 4.1 22:29:53 10° N 22:36:11 71° E 22:39:30 29° SSE
Cosmos 1850 Rocket 4.4 22:31:46 10° NNW 22:36:48 50° WSW 22:39:02 30° SSW
Cosmos 2369 4.1 22:32:03 10° NNW 22:37:43 59° ENE 22:41:14 23° SE
SJ 16-02 4.2 22:37:46 10° NNE 22:38:46 11° NE 22:39:46 10° ENE
Cosmos 1328 4.1 22:37:12 34° SSW 22:38:48 63° WNW 22:42:49 10° N
Cosmos 2228 4.3 22:35:35 10° NNW 22:39:20 32° W 22:41:10 22° SW
Cosmos 2218 Rocket 4.2 22:33:23 10° N 22:39:46 65° ENE 22:43:17 28° SSE
Cosmos 2341 Rocket 4.0 22:35:19 10° N 22:41:43 90° NE 22:45:04 30° S
SL-16 R/B 4.3 22:38:22 10° N 22:42:41 22° NE 22:46:59 10° E
Cosmos 1408 2.3 22:43:33 58° SSE 22:44:05 73° E 22:47:33 10° NNE
Terra 4.3 22:43:54 10° WSW 22:45:15 11° W 22:46:36 10° WNW
Cosmos 1825 3.0 22:46:54 33° ESE 22:47:30 36° E 22:50:58 10° NNE
ALOS 2 2.5 22:46:37 40° SSE 22:48:11 87° WSW 22:52:36 10° NNW
Cosmos 2366 rocket 4.1 22:43:07 10° N 22:49:26 74° E 22:52:47 30° SSE
Cosmos 1900 4.4 22:45:48 10° NW 22:51:00 81° NE 22:53:35 30° SE
SL-8 R/B 3.6 22:46:36 10° W 22:51:27 88° SSW 22:56:17 10° ESE
Cosmos 1726 Rocket 4.1 22:47:57 10° NNW 22:52:06 47° W 22:53:36 32° SW
USA 267 4.1 22:45:53 10° NE 22:52:11 52° NNW 22:58:28 10° W
Cosmos 1980 Rocket 2.4 22:50:19 10° NNW 22:56:02 70° ENE 22:59:14 27° SE
RESURS DK-1 2.9 22:54:17 10° NW 22:58:13 43° WSW 22:59:03 38° SW
Cosmos 1697 Rocket 2.8 22:54:49 10° NNW 23:00:22 60° WSW 23:02:42 34° S
Cosmos 1331 Rocket 4.3 22:57:22 23° SW 23:00:40 64° WNW 23:05:58 10° NNE
Cosmos 1892 2.7 23:06:34 48° SW 23:07:28 70° WNW 23:11:13 10° N
Lacrosse 5 rocket 3.5 23:05:51 10° W 23:07:17 14° WSW 23:07:17 14° WSW
ERS-2 2.0 23:05:17 10° NNE 23:08:53 70° ESE 23:09:26 57° SSE
ADEOS Rocket 3.4 23:05:35 29° S 23:09:25 74° WSW 23:16:59 10° NNW
USA 276 1.9 23:10:14 76° N 23:10:14 76° N 23:13:05 10° ENE
In-Cosmos 22 Rocket 4.1 23:08:21 34° S 23:10:57 83° E 23:16:32 10° NNE
Cosmos 2084 Rocket 3.7 23:07:18 10° NW 23:11:10 58° NE 23:13:11 26° ESE
Cosmos 2058 Rocket 3.6 23:11:08 10° NNW 23:15:21 46° W 23:16:43 34° SW
Cosmos 1602 Rocket 4.0 23:15:24 37° SE 23:16:37 49° E 23:20:48 10° NNE
Cosmos 1959 Rocket 4.5 23:12:21 10° NNW 23:18:27 72° W 23:21:25 32° S
Cosmos 2181 Rocket 4.0 23:15:17 30° SSW 23:18:31 77° W 23:24:44 10° N
Cosmos 1302 Rocket 4.0 23:21:10 32° SSW 23:23:39 80° WNW 23:28:53 10° NNE
Cosmos 2278 3.9 23:18:19 10° NNW 23:24:03 70° ENE 23:27:31 25° SE
Cosmos 192 4.5 23:21:56 31° SW 23:24:15 70° WNW 23:29:10 10° NNE
Cosmos 2322 Rocket 3.9 23:20:05 10° NNW 23:25:00 29° NE 23:29:54 10° ESE
Geosat FO 4.4 23:25:31 57° SE 23:26:09 86° NE 23:29:41 10° NNW
USA 234 4.3 23:26:11 23° SW 23:27:40 25° SW 23:32:56 10° WNW
ATLAS 2AS CENTAUR R/B 4.3 23:25:51 10° WNW 23:30:01 17° WSW 23:32:16 14° SW
Cosmos 1833 Rocket 3.6 23:26:16 15° SW 23:30:44 45° NW 23:36:09 10° NNE
CZ-2D R/B 4.3 23:33:27 10° ENE 23:35:46 13° E 23:38:05 10° ESE
Geosat 4.2 23:35:56 24° SE 23:38:59 71° ENE 23:44:00 10° NNW
BREEZE-M DEB (TANK) 4.2 23:37:05 10° WNW 23:40:54 89° NNE 23:58:05 10° ESE
Okean 1-7 Rocket 4.0 23:39:48 34° SW 23:41:26 53° WNW 23:45:49 10° N
Cosmos 1626 Rocket 3.8 23:42:03 37° SW 23:43:31 58° WNW 23:47:49 10° N
Cosmos 2082 Rocket 2.3 23:41:32 28° SW 23:44:39 77° WNW 23:50:24 10° NNE
Cosmos 1821 Rocket 4.0 23:41:23 10° N 23:47:43 84° W 23:50:56 31° S
Cosmos 1869 4.1 23:46:38 10° NNW 23:50:11 36° W 23:50:55 33° WSW
ATLAS 5 CENTAUR R/B 2.2 23:51:04 31° SE 23:51:18 31° ESE 23:54:54 10° ENE
Cosmos 1238 4.1 23:52:31 65° ESE 23:52:41 67° E 23:55:41 10° NNE
Cosmos 1825 Rocket 3.9 23:53:55 36° SSE 23:55:21 54° E 23:59:35 10° NNE
